Flag for Denmark Weather past 2 weeks in Vejle, Denmark

Now
39 °F

Passing clouds.


Feels Like: 32 °F
Forecast: 35 / 42 °F
Wind: 12 mph from Southwest

Location: Billund Lufthavn

Current Time: Mar 1, 2015 at 10:48:38 PM

Latest Report: Mar 1, 2015 at 10:20 PM


Visibility: 6 mi

Pressure: 29.30 "Hg

Humidity: 87%

Dew point: 36 °F

Location of VejleLocation

Historic Weather in Vejle — Graph

°F

Vejle temperature yesterday

Maximum temperature yesterday: 43 °F (at 12:20 PM)
Minimum temperature yesterday: 25 °F (at 12:20 AM)
Average temperature yesterday: 38 °F

Past Weeks' High & Low Weather Summary

 TemperatureHumidityPressure
High45 °F (Feb 18, 10:50 AM)100% (Feb 17, 9:20 AM)30.54 "Hg (Feb 17, 9:20 AM)
Low25 °F (Feb 28, 12:20 AM)66% (Feb 18, 10:50 AM)29.12 "Hg (Feb 23, 7:56 AM)
Average38 °F89%29.83 "Hg
* Reported Feb 14 9:20 PM — Mar 1 9:20 PM, Vejle, Weather by CustomWeather, © 2015

Note: Actual official high and low records may vary slightly from our data, if they occured in-between our weather recording intervals... More about our weather records

Advertising

Vejle weather history for previous 24 hours

 ConditionsComfort  
Time TempWeatherWind HumidityBarometerVisibility
9:20 PM
Sun, Mar 1
39 °FPassing clouds.12 mph93%29.30 "Hg6 mi
8:20 PM41 °FPassing clouds.16 mph87%29.30 "HgN/A
7:50 PM41 °FPassing clouds.17 mph87%29.30 "HgN/A
7:20 PM41 °FSprinkles. Passing clouds.17 mph87%29.33 "HgN/A
6:50 PM41 °FSprinkles. Partly cloudy.16 mph87%29.30 "HgN/A
6:20 PM41 °FPassing clouds.16 mph87%29.30 "HgN/A
5:50 PM41 °FSprinkles. Partly sunny.16 mph87%29.30 "Hg4 mi
5:20 PM41 °FSprinkles. Partly sunny.18 mph93%29.30 "Hg4 mi
4:50 PM41 °FSprinkles. Partly sunny.17 mph93%29.30 "HgN/A
4:20 PM43 °FSprinkles. Partly sunny.20 mph81%29.30 "HgN/A
3:50 PM43 °FSprinkles. Partly sunny.17 mph81%29.27 "HgN/A
3:20 PM43 °FPartly sunny.17 mph81%29.27 "HgN/A
2:50 PM43 °FBroken clouds.18 mph87%29.27 "HgN/A
2:20 PM45 °FBroken clouds.16 mph76%29.27 "HgN/A
1:50 PM45 °FBroken clouds.21 mph81%29.27 "HgN/A
1:20 PM45 °FPartly sunny.21 mph76%29.27 "HgN/A
12:50 PM45 °FBroken clouds.17 mph81%29.27 "HgN/A
11:50 AM43 °FPartly sunny.15 mph93%29.27 "HgN/A
11:20 AM43 °FBroken clouds.16 mph93%29.24 "Hg6 mi
10:50 AM43 °FBroken clouds.15 mph93%29.24 "Hg4 mi
10:20 AM41 °FDrizzle. Partly sunny.15 mph93%29.24 "Hg4 mi
10:01 AM39 °FDrizzle. Partly sunny.17 mph100%29.24 "Hg4 mi
9:20 AM39 °FDrizzle. Fog.17 mph93%29.27 "Hg2 mi
8:50 AM37 °FDrizzle. Fog.17 mph100%29.27 "Hg2 mi
8:20 AM37 °FDrizzle. Fog.17 mph100%29.27 "Hg2 mi
7:50 AM37 °FDrizzle. Fog.18 mph93%29.30 "Hg2 mi
7:20 AM37 °FLight rain. Partly sunny.18 mph93%29.30 "Hg3 mi
6:50 AM36 °FLight rain. Fog.17 mph100%29.30 "Hg2 mi
6:20 AM36 °FLight rain. Low clouds.16 mph93%29.33 "Hg3 mi
5:50 AM36 °FLight rain. Low clouds.15 mph93%29.36 "Hg4 mi
5:20 AM36 °FRain. Overcast.15 mph93%29.39 "Hg3 mi
4:50 AM36 °FRain. Overcast.15 mph93%29.39 "Hg4 mi
4:20 AM37 °FSprinkles. Overcast.14 mph87%29.42 "Hg5 mi
3:50 AM36 °FSprinkles. Passing clouds.16 mph93%29.45 "Hg3 mi
3:20 AM37 °FPassing clouds.16 mph93%29.45 "Hg6 mi
2:50 AM37 °FPassing clouds.15 mph93%29.47 "Hg3 mi
2:20 AM37 °FSprinkles. Fog.16 mph93%29.50 "Hg3 mi
1:50 AM37 °FSprinkles. Fog.16 mph87%29.53 "Hg3 mi
1:20 AM39 °FSprinkles. Passing clouds.17 mph75%29.56 "HgN/A
12:50 AM39 °FSprinkles. Overcast.17 mph75%29.56 "HgN/A
12:20 AM41 °FOvercast.16 mph66%29.59 "HgN/A
11:50 PM
Sat, Feb 28
41 °FOvercast.16 mph66%29.62 "HgN/A
11:20 PM41 °FOvercast.16 mph66%29.62 "HgN/A
10:50 PM41 °FOvercast.17 mph66%29.65 "HgN/A
10:20 PM41 °FOvercast.17 mph66%29.68 "HgN/A
Weather by CustomWeather, © 2015

See weather overviewHow to use our weather pages